Location: Anumalkud?ru
(16.4847°N, 80.6636°E)
Time: 10:50:22
(UTC+00:00)

Cosmos 2360 Rocket - Pass Details

Date: 11 April 2026
Orbit: 831 x 845 km, 71.0° (Epoch: 20 May)

Event Time Altitude Azimuth Distance (km) Brightness Sun altitude
Rises 13:22:17 0° 205° (SSW) 3,362 5.5 -8.0°
Reaches altitude 10° 13:24:45 10° 210° (SSW) 2,430 4.8 -8.6°
Maximum altitude 13:30:13 56° 288° (WNW) 978 3.0 -9.8°
Drops below altitude 10° 13:35:42 10° 6° (N) 2,440 4.7 -11.1°
Sets 13:38:11 0° 10° (N) 3,377 5.4 -11.7°
